This demonstration page uses our WeatherBlox Daily Observations layout. Learn more.

Left ArrowRight Arrow

34.02893, -84.19858

Hourly Observations for November 23, 2016

Temp ( °F °C ) Dew Point ( °F °C ) Humidity (%) Winds ( mph kmh ) Pressure ( in mb ) Visibility ( mi km ) Precip ( " mm )
12:53 am 00:53 Clear 41 5 24 -4.4 51 51 Calm 30.25 1025 10 16 0.00 0.00
1:53 am 01:53 Clear 41 5 24 -4.4 51 51 Calm 30.26 1025 10 16 0.00 0.00
2:53 am 02:53 Clear 42 5.6 23 -5 47 47 NE 3 6 30.27 1025 10 16 0.00 0.00
3:53 am 03:53 Clear 42 5.6 24 -4.4 49 49 Calm 30.26 1025 10 16 0.00 0.00
4:53 am 04:53 Clear 40 4.4 24 -4.4 53 53 Calm 30.26 1025 10 16 0.00 0.00
5:53 am 05:53 Clear 42 5.6 25 -3.9 51 51 Calm 30.27 1025 10 16 0.00 0.00
6:53 am 06:53 Clear 42 5.6 26 -3.3 53 53 Calm 30.29 1026 10 16 0.00 0.00
7:53 am 07:53 Sunny 43 6.1 26 -3.3 51 51 Calm 30.30 1026 10 16 0.00 0.00
8:53 am 08:53 Sunny 47 8.3 27 -2.8 46 46 VRB 3 6 30.30 1026 10 16 0.00 0.00
9:53 am 09:53 Sunny 53 11.7 28 -2.2 38 38 Calm 30.32 1027 10 16 0.00 0.00
10:53 am 10:53 Sunny 59 15 32 0 36 36 ESE 6 9 30.30 1026 10 16 0.00 0.00
11:53 am 11:53 Mostly Sunny 63 17.2 37 2.8 38 38 SSE 9 15 30.25 1024 10 16 0.00 0.00
12:53 pm 12:53 Sunny 63 17.2 44 6.7 50 50 SSE 7 11 30.22 1024 10 16 0.00 0.00
1:53 pm 13:53 Sunny 65 18.3 44 6.7 47 47 SSE 12 19 30.20 1023 10 16 0.00 0.00
2:53 pm 14:53 Sunny 65 18.3 41 5 42 42 SSE 9 15 30.19 1022 10 16 0.00 0.00
3:53 pm 15:53 Sunny 66 18.9 42 5.6 42 42 SSE 6 9 30.19 1022 10 16 0.00 0.00
4:53 pm 16:53 Sunny 64 17.8 43 6.1 46 46 SSE 3 6 30.17 1022 10 16 0.00 0.00
5:53 pm 17:53 Clear 62 16.7 43 6.1 50 50 SE 5 7 30.16 1021 10 16 0.00 0.00
6:53 pm 18:53 Clear 62 16.7 43 6.1 50 50 Calm 30.16 1021 10 16 0.00 0.00
7:53 pm 19:53 Clear 60 15.6 44 6.7 56 56 Calm 30.17 1022 10 16 0.00 0.00
8:53 pm 20:53 Partly Cloudy 57 13.9 44 6.7 62 62 Calm 30.19 1023 10 16 0.00 0.00
9:53 pm 21:53 Cloudy 57 13.9 46 7.8 67 67 Calm 30.19 1022 10 16 0.00 0.00
10:53 pm 22:53 Cloudy 59 15 48 8.9 67 67 Calm 30.18 1022 10 16 0.00 0.00
11:53 pm 23:53 Cloudy 59 15 49 9.4 69 69 Calm 30.18 1022 10 16 0.00 0.03

Powered by AerisWeather